TimePST,TemperatureF,Dew PointF,Humidity,Sea Level PressureIn,VisibilityMPH,Wind Direction,Wind SpeedMPH,Gust SpeedMPH,PrecipitationIn,Events,Conditions,WindDirDegrees,DateUTC
12:53 AM,28.9,28.0,96,29.70,10.0,Calm,Calm,-,0.00,,Mostly Cloudy,0,2012-12-26 08:53:00
1:13 AM,24.8,24.8,100,29.66,10.0,Calm,Calm,-,N/A,,Scattered Clouds,0,2012-12-26 09:13:00
1:53 AM,27.0,26.1,96,29.70,5.0,Calm,Calm,-,0.00,Snow,Light Snow,0,2012-12-26 09:53:00
2:34 AM,28.4,28.4,100,29.67,2.5,South,3.5,-,0.00,Snow,Light Snow,190,2012-12-26 10:34:00
2:53 AM,28.9,28.9,100,29.70,1.5,SSW,4.6,-,0.01,Snow,Light Snow,210,2012-12-26 10:53:00
3:04 AM,28.4,28.4,100,29.67,1.5,SSW,3.5,-,0.00,Snow,Light Snow,200,2012-12-26 11:04:00
3:13 AM,28.4,28.4,100,29.67,1.8,Calm,Calm,-,0.00,Snow,Light Snow,0,2012-12-26 11:13:00
3:25 AM,28.4,28.4,100,29.67,2.0,Calm,Calm,-,0.00,Snow,Light Snow,0,2012-12-26 11:25:00
3:39 AM,28.4,28.4,100,29.67,2.5,Calm,Calm,-,0.00,Snow,Light Snow,0,2012-12-26 11:39:00
3:46 AM,28.4,28.4,100,29.67,2.0,Calm,Calm,-,0.00,Snow,Light Snow,0,2012-12-26 11:46:00
4:03 AM,28.4,28.4,100,29.67,1.2,Calm,Calm,-,0.00,Snow,Light Snow,0,2012-12-26 12:03:00
4:18 AM,28.4,28.4,100,29.67,3.0,Calm,Calm,-,0.00,Snow,Light Snow,0,2012-12-26 12:18:00
4:29 AM,28.4,28.4,100,29.67,4.0,Calm,Calm,-,0.00,Snow,Light Snow,0,2012-12-26 12:29:00
4:53 AM,28.0,28.0,100,29.71,10.0,Calm,Calm,-,0.00,,Overcast,0,2012-12-26 12:53:00
5:07 AM,28.4,26.6,93,29.68,10.0,Calm,Calm,-,N/A,,Overcast,0,2012-12-26 13:07:00
5:44 AM,26.6,26.6,100,29.68,10.0,South,3.5,-,N/A,,Overcast,190,2012-12-26 13:44:00
5:51 AM,26.6,26.6,100,29.69,10.0,SW,3.5,-,N/A,,Overcast,230,2012-12-26 13:51:00
5:53 AM,27.0,27.0,100,29.73,10.0,SSW,3.5,-,N/A,,Overcast,210,2012-12-26 13:53:00
6:01 AM,28.4,26.6,93,29.69,7.0,Calm,Calm,-,N/A,,Overcast,0,2012-12-26 14:01:00
6:53 AM,24.1,23.0,96,29.77,7.0,Calm,Calm,-,N/A,Fog,Patches of Fog,0,2012-12-26 14:53:00
7:53 AM,19.9,19.9,100,29.80,0.5,SW,3.5,-,N/A,Fog,Light Freezing Fog,220,2012-12-26 15:53:00
8:24 AM,21.2,21.2,100,29.75,7.0,South,4.6,-,N/A,Fog,Patches of Fog,170,2012-12-26 16:24:00
8:53 AM,28.0,26.1,92,29.81,10.0,SW,3.5,-,N/A,,Mostly Cloudy,220,2012-12-26 16:53:00
9:53 AM,27.0,25.0,92,29.84,10.0,West,5.8,-,N/A,,Mostly Cloudy,270,2012-12-26 17:53:00
10:53 AM,28.0,25.0,88,29.86,10.0,Calm,Calm,-,N/A,,Mostly Cloudy,0,2012-12-26 18:53:00
11:53 AM,30.9,27.0,85,29.85,10.0,South,4.6,-,N/A,,Mostly Cloudy,190,2012-12-26 19:53:00
12:53 PM,34.0,28.9,82,29.84,10.0,West,10.4,-,N/A,,Mostly Cloudy,270,2012-12-26 20:53:00
1:53 PM,34.0,28.9,82,29.86,10.0,WSW,10.4,-,N/A,,Mostly Cloudy,250,2012-12-26 21:53:00
2:02 PM,33.8,28.4,81,29.81,7.0,WNW,8.1,-,0.00,Snow,Light Snow,290,2012-12-26 22:02:00
2:26 PM,33.8,28.4,81,29.82,9.0,WNW,9.2,-,0.00,,Mostly Cloudy,290,2012-12-26 22:26:00
2:53 PM,33.1,28.9,85,29.87,10.0,West,12.7,-,0.00,,Mostly Cloudy,270,2012-12-26 22:53:00
3:53 PM,33.1,30.0,89,29.89,10.0,West,10.4,-,N/A,,Overcast,270,2012-12-26 23:53:00
4:53 PM,32.0,28.9,88,29.91,10.0,West,10.4,-,N/A,,Mostly Cloudy,260,2012-12-27 00:53:00
5:53 PM,32.0,28.0,85,29.93,10.0,West,8.1,-,N/A,,Mostly Cloudy,270,2012-12-27 01:53:00
6:53 PM,30.0,27.0,88,29.95,10.0,West,10.4,-,N/A,,Mostly Cloudy,280,2012-12-27 02:53:00
7:53 PM,28.9,26.1,89,29.98,10.0,WNW,6.9,-,N/A,,Mostly Cloudy,300,2012-12-27 03:53:00
8:53 PM,28.9,26.1,89,29.98,10.0,West,11.5,-,N/A,,Scattered Clouds,270,2012-12-27 04:53:00
9:53 PM,27.0,25.0,92,30.01,10.0,Calm,Calm,-,N/A,,Scattered Clouds,0,2012-12-27 05:53:00
10:53 PM,26.1,23.0,88,30.03,10.0,WNW,3.5,-,N/A,,Partly Cloudy,290,2012-12-27 06:53:00
11:53 PM,24.1,21.0,88,30.04,10.0,West,8.1,-,N/A,,Scattered Clouds,260,2012-12-27 07:53:00